TimeCDT,TemperatureF,Dew PointF,Humidity,Sea Level PressureIn,VisibilityMPH,Wind Direction,Wind SpeedMPH,Gust SpeedMPH,PrecipitationIn,Events,Conditions,WindDirDegrees,DateUTC
12:15 AM,57.6,53.8,87,30.02,10.0,Calm,Calm,-,N/A,,Unknown,0,2013-05-07 05:15:00
12:35 AM,57.2,53.6,88,30.01,10.0,Calm,Calm,-,N/A,,Unknown,0,2013-05-07 05:35:00
12:55 AM,57.2,53.8,88,30.01,10.0,Calm,Calm,-,N/A,,Unknown,0,2013-05-07 05:55:00
1:15 AM,56.5,52.9,88,30.00,10.0,Calm,Calm,-,N/A,,Unknown,0,2013-05-07 06:15:00
1:35 AM,56.3,52.9,88,30.01,10.0,Calm,Calm,-,N/A,,Unknown,0,2013-05-07 06:35:00
1:55 AM,55.9,52.7,89,30.00,10.0,Calm,Calm,-,N/A,,Unknown,0,2013-05-07 06:55:00
2:15 AM,55.9,52.7,89,30.00,10.0,Calm,Calm,-,N/A,,Unknown,0,2013-05-07 07:15:00
2:35 AM,55.8,52.5,89,29.99,10.0,Calm,Calm,-,N/A,,Unknown,0,2013-05-07 07:35:00
2:55 AM,54.9,51.8,89,29.99,10.0,Calm,Calm,-,N/A,,Unknown,0,2013-05-07 07:55:00
3:15 AM,55.4,52.2,89,29.99,10.0,Calm,Calm,-,N/A,,Unknown,0,2013-05-07 08:15:00
3:35 AM,55.4,52.0,88,29.99,10.0,Calm,Calm,-,N/A,,Unknown,0,2013-05-07 08:35:00
3:55 AM,54.3,51.1,89,30.00,10.0,Calm,Calm,-,N/A,,Unknown,0,2013-05-07 08:55:00
4:15 AM,53.8,51.1,91,30.00,10.0,Calm,Calm,-,N/A,,Unknown,0,2013-05-07 09:15:00
4:35 AM,53.6,50.9,91,30.00,10.0,Calm,Calm,-,N/A,,Unknown,0,2013-05-07 09:35:00
4:55 AM,53.8,50.9,90,30.01,10.0,Calm,Calm,-,N/A,,Unknown,0,2013-05-07 09:55:00
5:15 AM,54.0,50.7,89,30.01,10.0,Calm,Calm,-,N/A,,Unknown,0,2013-05-07 10:15:00
5:35 AM,52.7,50.0,91,30.02,10.0,Calm,Calm,-,N/A,,Unknown,0,2013-05-07 10:35:00
5:55 AM,52.7,50.0,91,30.02,10.0,Calm,Calm,-,N/A,,Unknown,0,2013-05-07 10:55:00
6:15 AM,51.8,49.1,90,30.03,10.0,Calm,Calm,-,N/A,,Unknown,0,2013-05-07 11:15:00
6:35 AM,52.7,50.2,91,30.03,10.0,Calm,Calm,-,N/A,,Clear,0,2013-05-07 11:35:00
6:55 AM,53.8,50.9,90,30.04,10.0,Calm,Calm,-,N/A,,Clear,0,2013-05-07 11:55:00
7:15 AM,55.4,52.0,88,30.05,10.0,Calm,Calm,-,N/A,,Scattered Clouds,0,2013-05-07 12:15:00
7:35 AM,58.8,54.1,84,30.05,10.0,Calm,Calm,-,N/A,,Scattered Clouds,0,2013-05-07 12:35:00
7:55 AM,60.8,55.4,82,30.06,10.0,Calm,Calm,-,N/A,,Clear,0,2013-05-07 12:55:00
8:15 AM,63.5,56.3,77,30.06,10.0,Calm,Calm,-,N/A,,Clear,0,2013-05-07 13:15:00
8:35 AM,65.7,57.2,74,30.06,10.0,Calm,Calm,-,N/A,,Clear,0,2013-05-07 13:35:00
8:55 AM,67.8,56.5,67,30.07,10.0,Calm,Calm,-,N/A,,Clear,0,2013-05-07 13:55:00
9:15 AM,70.0,55.9,61,30.07,10.0,Calm,Calm,-,N/A,,Unknown,0,2013-05-07 14:15:00
9:35 AM,70.9,54.3,56,30.07,10.0,Calm,Calm,-,N/A,,Unknown,0,2013-05-07 14:35:00
9:55 AM,71.6,53.4,53,30.07,10.0,Calm,Calm,-,N/A,,Unknown,0,2013-05-07 14:55:00
10:15 AM,72.9,53.4,50,30.08,10.0,Calm,Calm,-,N/A,,Unknown,0,2013-05-07 15:15:00
10:35 AM,73.6,53.2,49,30.07,10.0,Calm,Calm,-,N/A,,Clear,0,2013-05-07 15:35:00
11:15 AM,75.0,52.9,46,30.07,10.0,WNW,4.6,-,N/A,,Scattered Clouds,300,2013-05-07 16:15:00
11:35 AM,75.6,52.7,45,30.07,10.0,WSW,4.6,-,N/A,,Scattered Clouds,240,2013-05-07 16:35:00
11:55 AM,76.3,52.7,44,30.06,10.0,North,3.5,-,N/A,,Scattered Clouds,350,2013-05-07 16:55:00
12:15 PM,77.5,51.8,41,30.05,10.0,NW,8.1,-,N/A,,Scattered Clouds,310,2013-05-07 17:15:00
12:35 PM,77.5,53.2,43,30.05,10.0,NW,5.8,-,N/A,,Clear,310,2013-05-07 17:35:00
12:55 PM,78.4,51.4,39,30.05,10.0,NNW,5.8,-,N/A,,Clear,340,2013-05-07 17:55:00
1:15 PM,78.3,51.8,40,30.04,10.0,WSW,3.5,-,N/A,,Unknown,250,2013-05-07 18:15:00
1:35 PM,77.5,52.9,42,30.04,10.0,NNW,5.8,-,N/A,,Unknown,340,2013-05-07 18:35:00
1:55 PM,78.1,53.2,42,30.03,10.0,NNW,6.9,-,N/A,,Unknown,330,2013-05-07 18:55:00
2:15 PM,79.7,52.9,39,30.03,10.0,NW,6.9,-,N/A,,Unknown,320,2013-05-07 19:15:00
2:35 PM,80.4,51.6,37,30.02,10.0,West,8.1,-,N/A,,Unknown,280,2013-05-07 19:35:00
2:55 PM,80.6,51.1,36,30.01,10.0,NW,6.9,-,N/A,,Unknown,320,2013-05-07 19:55:00
3:15 PM,79.0,51.8,39,30.01,10.0,NW,5.8,-,N/A,,Unknown,320,2013-05-07 20:15:00
3:35 PM,79.7,52.5,39,30.00,10.0,NW,6.9,-,N/A,,Unknown,320,2013-05-07 20:35:00
3:55 PM,81.0,52.3,37,30.00,10.0,WNW,9.2,19.6,N/A,,Unknown,300,2013-05-07 20:55:00
4:15 PM,79.5,51.1,37,30.00,10.0,WNW,8.1,17.3,N/A,,Unknown,300,2013-05-07 21:15:00
4:55 PM,81.1,52.3,37,30.00,10.0,WNW,9.2,-,N/A,,Unknown,300,2013-05-07 21:55:00
5:15 PM,78.3,54.1,43,30.00,10.0,NW,5.8,-,N/A,,Unknown,320,2013-05-07 22:15:00
5:35 PM,77.9,55.4,46,30.00,10.0,NW,4.6,-,N/A,,Overcast,320,2013-05-07 22:35:00
5:55 PM,77.7,55.2,46,30.00,10.0,NNW,3.5,-,N/A,,Overcast,330,2013-05-07 22:55:00
6:15 PM,78.1,56.1,47,30.00,10.0,North,4.6,-,N/A,,Overcast,350,2013-05-07 23:15:00
6:55 PM,76.1,56.8,51,30.00,10.0,Calm,Calm,-,N/A,,Clear,0,2013-05-07 23:55:00
7:15 PM,74.1,62.1,66,30.01,10.0,Calm,Calm,-,N/A,,Clear,0,2013-05-08 00:15:00
7:35 PM,72.9,60.4,65,30.01,10.0,Calm,Calm,-,N/A,,Clear,0,2013-05-08 00:35:00
7:55 PM,68.2,62.6,82,30.02,10.0,Calm,Calm,-,N/A,,Scattered Clouds,0,2013-05-08 00:55:00
8:15 PM,67.6,62.4,83,30.02,10.0,Calm,Calm,-,N/A,,Scattered Clouds,0,2013-05-08 01:15:00
8:35 PM,68.5,61.2,77,30.03,10.0,Calm,Calm,-,N/A,,Mostly Cloudy,0,2013-05-08 01:35:00
8:55 PM,67.6,61.3,80,30.03,10.0,Calm,Calm,-,N/A,,Overcast,0,2013-05-08 01:55:00
9:15 PM,66.4,61.9,85,30.04,10.0,Calm,Calm,-,N/A,,Unknown,0,2013-05-08 02:15:00
9:35 PM,65.5,61.3,86,30.05,10.0,Calm,Calm,-,N/A,,Unknown,0,2013-05-08 02:35:00
9:55 PM,64.8,60.8,87,30.05,10.0,Calm,Calm,-,N/A,,Unknown,0,2013-05-08 02:55:00
10:15 PM,63.5,59.9,88,30.06,10.0,Calm,Calm,-,N/A,,Unknown,0,2013-05-08 03:15:00
10:35 PM,62.8,59.2,88,30.06,10.0,Calm,Calm,-,N/A,,Unknown,0,2013-05-08 03:35:00
10:55 PM,61.2,58.1,90,30.06,10.0,Calm,Calm,-,N/A,,Clear,0,2013-05-08 03:55:00
11:15 PM,62.1,58.5,88,30.06,10.0,Calm,Calm,-,N/A,,Clear,0,2013-05-08 04:15:00
11:35 PM,61.5,57.9,88,30.07,10.0,Calm,Calm,-,N/A,,Unknown,0,2013-05-08 04:35:00
11:55 PM,60.1,56.8,89,30.07,10.0,Calm,Calm,-,N/A,,Unknown,0,2013-05-08 04:55:00